Regional Weather Roundup
Issued by NWS Pendleton, OR

Home | Current Version | Previous Version | Text Only | Print | Product List | Glossary On
Versions: 1 2 3 4 5 6 7 8 9 10 11 12 13 14 15 16 17 18 19 20 21 22 23 24 25 26 27 28 29 30 31 32 33 34 35 36 37 38 39 40 41 42 43 44 45 46 47 48 49 50
000
ASUS46 KPDT 200510
RWRPDT
PENDLETON REGIONAL WEATHER ROUNDUP
NATIONAL WEATHER SERVICE PENDLETON OREGON
900 PM PST SUN NOV 19 2017

NOTE: FAIR INDICATES FEW OR NO CLOUDS BELOW 12,000 FEET WITH NO
SIGNIFICANT WEATHER AND/OR OBSTRUCTIONS TO VISIBILITY.

# INDICATES UNOFFICIAL STATION AND DATA

WAZ520-200610-
EAST SLOPES OF WASHINGTON CASCADES

CITY            SKY/WX      TMP DP  RH  WIND    PRES   REMARKS
#BULLFROG       N/A         32  32  100 CALM    N/A
#CLE ELUM HS    N/A         34  31  89  CALM    29.67S
#CLE ELUM LAKE  N/A         32  31  96  CALM    29.61S
#EASTON DOT     N/A         32  31  96  CALM    N/A
#ELK HTS DOT    N/A         33  33  100 CALM    N/A
#GLENWOOD       N/A         41  37  86  S1      29.77F
#NELSON 3SW     N/A         31  30  96  CALM    29.93F
#NILE           N/A         34  32  92  CALM    29.00F
#TEANAWAY 4NE   N/A         33  32  96  CALM    N/A
#TROUT LAKE 1NE N/A         38  36  92  CALM    29.78F
#TROUT LAKE 1E  N/A         37  35  92  CALM    29.78S
$$

WAZ521-200610-
SIMCOE HIGHLANDS

CITY            SKY/WX      TMP DP  RH  WIND    PRES   REMARKS
#BICKLETON HS   N/A         N/A N/A N/A CALM    29.77R
#CENTERVILLE 1SWN/A         32  27  82  CALM    29.77S
#GOLDENDALE 1NE N/A         37  24  59  SW3     N/A
#GOLDENDALE 4W  N/A         36  22  56  W2      29.78R
#GOODNOE HILLS  N/A         37  27  67  NW9     N/A
#LYLE 6NE       N/A         40  31  70  CALM    29.80R
#PITT 4SE       N/A         42  29  60  CALM    29.82R
$$

WAZ026-200610-
KITTITAS VALLEY

CITY            SKY/WX      TMP DP  RH  WIND    PRES   REMARKS
ELLENSBURG AP   LGT FRZ RAI 33  31  92  E3      29.68S FOG
#ELLENSBURG CWU N/A         31  30  96  CALM    29.70S
#ELLENSBURG 3NE N/A         31  30  96  CALM    27.78F
#ELLENSBURG 1E  N/A         31  30  96  CALM    29.81S
#KITTITAS 3S    N/A         32  30  92  CALM    29.74F
#MANASTASH RDG  N/A         37  36  96  NW2     N/A
#RYEGRASS DOT   N/A         30  29  96  NW8     N/A
$$

WAZ027-200610-
YAKIMA VALLEY

CITY            SKY/WX      TMP DP  RH  WIND    PRES   REMARKS
SUNNYSIDE AP    CLOUDY      41  29  62  NE7     29.71R
YAKIMA AIRPORT  CLOUDY      39  31  73  CALM    29.69S
YAKIMA-VAGABOND LGT RAIN    39  28  64  E6      29.66F
#DONALD 2NE     N/A         51   8  17  SE23    28.54S
#GRANDVIEW      N/A         48  23  37  S1      29.66F
#MABTON         N/A         51  28  41  S9      29.70S
#MOXEE 2E       N/A         30  N/A N/A CALM    29.99S
#NACHES 2SW     N/A         42  38  86  W7      29.68S
#OUTLOOK DOT    N/A         42  28  57  CALM    29.68R
#PARKER DOT     N/A         49  22  34  N5      29.69R
#TERRACE HTS    N/A         38  29  70  CALM    29.70S
#TOPPENISH      N/A         48  28  46  SW1     29.65S
#I82 S UMTANUM RN/A         40  19  42  W1      N/A
#UNION GAP DOT  N/A         39  30  70  E3      29.73R
#W YAKIMA       N/A         39  30  70  CALM    29.73F
#WHITE SWAN 5E  N/A         51  35  54  SW22G36 29.74R
#WILEY CITY 3W  N/A         36  29  75  CALM    29.65S
#ZILLAH DOT     N/A         49  22  34  S6      N/A
$$

WAZ028-200610-
LOWER COLUMBIA BASIN...WASHINGTON

CITY            SKY/WX      TMP DP  RH  WIND    PRES   REMARKS
PASCO           MOCLDY      44  31  60  CALM    29.73S
PROSSER AWOS    N/A         46  27  47  S5      29.74F
RICHLAND AWOS   CLOUDY      42  32  67  SW3     29.73S
#BENTON CITY    N/A         36  31  82  CALM    29.64F
#CONNELL 5N     N/A         44  30  58  E3      29.74S
#CONNELL 5NW    N/A         44  32  62  S6      29.68S
#ELTOPIA 6NW    N/A         42  33  70  CALM    28.69R
#KAHLOTUS       N/A         42  30  62  S1      29.75S
#KENNEWICK 3S   N/A         44  29  55  S3      29.74S
#PATERSON       N/A         39  35  85  CALM    29.73S
#PROSSER DOT    N/A         42  32  67  CALM    29.72S
#SAGEMOOR 2W    N/A         43  32  65  CALM    29.60F
#TOUCHET 2S     N/A         42  33  70  W5      29.72R
#WEST PASCO     N/A         44  31  60  CALM    29.70S
$$

WAZ029-200610-
FOOTHILLS OF THE BLUES...WASHINGTON

CITY            SKY/WX      TMP DP  RH  WIND    PRES   REMARKS
WALLA WALLA AP  CLOUDY      57  23  27  S17G26  29.70R
#CLYDE 6NW      N/A         46  28  49  SW2     29.74S
#DAYTON SCHOOL  N/A         55  19  24  SE7     29.72F
#DELANEY DOT    N/A         40  32  73  NE1     29.74S
#LOWDEN 2SE     N/A         43  35  73  CALM    29.69R
#PLEASANT VIEW 1N/A         42  29  60  SW6     29.78R
#PRESCOTT       N/A         39  35  85  CALM    29.75R
#WHITMAN COLLEGEN/A         58  25  28  SE9     29.69R
#WAITSBURG 5S   N/A         52  27  38  S12     29.81S
#WAITSBURG 6SSE N/A         54  20  26  SE8     29.69F
#WAITSBURG 8N   N/A         46  N/A N/A S8      29.74S
#WALLA WALLA 5E N/A         58  23  26  SE22    N/A
#WALLA WALLA U  N/A         56  27  33  S7      29.73R
#WHITMAN MISSIONN/A         46  34  63  CALM    29.74S
$$

WAZ030-200610-
BLUE MOUNTAINS...WASHINGTON

CITY            SKY/WX      TMP DP  RH  WIND    PRES   REMARKS
#DIXIE 5SE      N/A         50  18  28  S17G29  29.64S
$$

ORZ009-041-WAZ024-200610-
COLUMBIA RIVER GORGE

CITY            SKY/WX      TMP DP  RH  WIND    PRES   REMARKS
HOOD RIVER AP   LGT RAIN    36  34  92  CALM    29.77S
THE DALLES AP   CLOUDY      36  34  92  S5      29.78R FOG
#ARLINGTON AIRPON/A         37  34  89  W5      29.78R
#ARLINGTON HS   N/A         34  30  85  S3      29.68R
#CELILO DOT     N/A         39  34  82  SW2     N/A
#LYLE           N/A         40  38  92  NE3     29.80R
#MARYHILL       N/A         35  33  92  CALM    N/A
#MURDOCK        N/A         40  37  89  SE3     29.75R
#RUFUS DOT      N/A         37  N/A N/A S3      N/A
#SMITHVILLE     N/A         37  35  92  N2      29.73R

$$

ORZ510-200610-
NORTH CENTRAL OREGON

CITY            SKY/WX      TMP DP  RH  WIND    PRES   REMARKS
#ANTELOPE       N/A         47  29  49  SW13    29.70S WCI 41
#CHENOWITH 1W   N/A         40  30  67  NW12    N/A    WCI 33
#COW CYN RST AREN/A         49  N/A N/A S16G28  N/A    WCI 43
#DUFUR          N/A         47  29  49  NW7     29.75R
#DUFUR 9E       N/A         41  27  57  NW6     29.81R
#GRASS VALLEY 1SN/A         42  27  55  W10     29.75S
#KENT DOT       N/A         44  17  33  S9      N/A
#MAUPIN SCHOOL  N/A         37  29  72  CALM    29.80S
#MORO SCHOOL    N/A         44  31  60  W7      29.73R
#SHANIKO 5WSW   N/A         44  N/A N/A S18G26  N/A    WCI 36
#SHANIKO 4NW    N/A         44  23  43  S14G29  29.73R WCI 37
#TYGH VALLEY 2NEN/A         37  31  79  N2      29.78S
#WAPANITIA AIRPON/A         48  29  47  CALM    29.80S
#WASCO DOT      N/A         30  27  88  CALM    N/A
#WASCO 5NE      N/A         38  30  73  N2      29.77R
$$

ORZ511-200610-
CENTRAL OREGON

CITY            SKY/WX      TMP DP  RH  WIND    PRES   REMARKS
BEND AIRPORT    MOCLDY      46  30  53  S10G25  29.83F
PRINEVILLE AP   CLOUDY      48  27  44  S13     29.82R WCI 43
REDMOND AIRPORT MOCLDY      48  30  49  S22G36  29.77F WCI 41
#ASHWOOD SCHOOL N/A         52  27  38  S12     29.74S
#BEND 1SW       N/A         41  31  67  S3      N/A
#BEND-AWBREY    N/A         44  33  65  S7      29.85F
#BEND-KIM LN    N/A         41  29  62  W1      29.79F
#CULVER         N/A         46  27  47  SE2     29.65F
#CULVER 8W      N/A         47  32  56  SE1     29.81F
#LAKE BILLY CHINN/A         50  N/A N/A S9      29.85F
#MADRAS 4S      N/A         49  10  20  S7      N/A
#POWELL BUTTE   N/A         48  32  54  E21G30  29.78R WCI 41
#PRINEVILLE     N/A         52  27  38  SW5     29.95R
#PRINEVILLE 3N  N/A         50  29  44  SE6     29.86R
#WARM SPRINGS   N/A         53  36  52  CALM    29.62F

$$


ORZ509-200610-
EAST SLOPES OF OREGON CASCADES

CITY            SKY/WX      TMP DP  RH  WIND    PRES   REMARKS
#CAMP SHERMAN   N/A         40  33  76  CALM    29.91S
#LA PINE 4NW    N/A         38  30  73  CALM    30.03F
#LAVA BUTTE DOT N/A         41  22  46  SE6     N/A
#SISTERS ODOT   N/A         44  33  65  CALM    N/A
#SISTERS 3N     N/A         46  33  60  N3      29.79F
#SUNRIVER       N/A         40  31  70  S3      29.95R
#TUMALO 3W      N/A         47  32  56  SE7     29.68F
#WANOGA BUTTE D N/A         34  27  75  W16G24  N/A    WCI 24

$$

ORZ044-200610-
LOWER COLUMBIA BASIN...OREGON

CITY            SKY/WX      TMP DP  RH  WIND    PRES   REMARKS
HERMISTON       PTCLDY      35  32  89  E3      29.72F
#BOARDMAN SCHOOLN/A         32  29  89  CALM    29.74S
#BOARDMAN 8SW   N/A         36  31  82  SW6     29.77R
#ECHO 8SW       N/A         34  29  82  SW1     29.74S
#I-84 EX 198 DOTN/A         45  26  47  E6      N/A
#IONE SCHOOL    N/A         31  16  53  CALM    29.79R
#UMATILLA       N/A         40  32  73  CALM    29.67S
$$

ORZ507-200610-
NORTHERN FOOTHILLS OF THE BLUES

CITY            SKY/WX      TMP DP  RH  WIND    PRES   REMARKS
PENDLETON AIRPT PTCLDY      50  26  39  W12     29.71R
#ADAMS 3WNW     N/A         46  30  53  CALM    29.74S
#ATHENA         N/A         52  24  33  E2      29.76R
#CAYUSE         N/A         54  25  32  S14     29.72R
#HELIX SCHOOL   N/A         45  31  58  N7      29.77R
#HELIX 3N       N/A         47  28  47  SE14    29.71R WCI 41
#HOLDMAN 6E     N/A         45  30  55  S5      29.55R
#M-F GROVE ELEM N/A         56  20  24  SE3     29.69R
#M-FREEWATER 5SEN/A         55  26  32  E13     29.73R
#PENDLETON DNTN N/A         39  27  62  CALM    29.69S
#PDT AQUATIC CTRN/A         39  30  70  CALM    29.77S
#PDT SUNRIDGE   N/A         37  32  82  CALM    29.72R
#PENDLETON 6SE  N/A         55  30  38  S10     29.69S
#PENDLETON 7NW  N/A         45  32  60  CALM    31.86R
#PILOT ROCK 1S  N/A         57  22  25  S8      29.73R
#PILOT ROCK     N/A         53  28  38  CALM    29.74S
#TUTUILLA       N/A         47  30  51  S6      29.77R
#UMAPINE 2E     N/A         56  29  35  S8      29.68R

$$

ORZ508-200610-
SOUTHERN FOOTHILLS OF THE BLUES

CITY            SKY/WX      TMP DP  RH  WIND    PRES   REMARKS
LEXINGTON       MOCLDY      43  28  55  N7      29.75R
#AJAX           N/A         46  19  34  NW5     29.89R
#CONDON 5W      N/A         45  25  45  S7G25   29.70S
#HEPPNER EOC    N/A         54  25  32  SE8G28  29.65F
#HEPPNER 4NE    N/A         50  26  39  S2      29.72F
#LEXINGTON 2SE  N/A         40  28  62  W6      29.69R
#MIKKALO        N/A         41  25  53  W2      29.83R
#OLEX 4N        N/A         34  30  85  S2      29.73R
#RUGGS 5NE      N/A         50  24  36  S16G26  29.88S
#RUGGS 2SW      N/A         51  24  34  SW7     29.77R

$$

ORZ502-503-200610-
BLUE MOUNTAINS

CITY            SKY/WX      TMP DP  RH  WIND    PRES   REMARKS
MEACHAM         MOCLDY      37  23  56  CALM    29.78R
#BATTLE MTN DOT N/A         42  17  36  S14G24  N/A    WCI 35
#GRANITE        N/A         32  18  56  CALM    29.92R
#GREENHORN 9SW  N/A         36  25  64  CALM    29.88R
#LADD CYN SMT   N/A         37  21  52  SE20G28 N/A    WCI 27
#LADD CREEK ODOTN/A         40  23  50  SW8     N/A
#LONG CREEK HS  N/A         47  25  42  SW20G35 29.80R WCI 40
#N POWDER DOT   N/A         39  23  52  S16G24  N/A    WCI 30
#PIKES PEAK     N/A         49  16  26  CALM    27.99S
#TOLLGATE       N/A         34  22  61  W2      29.68R
#TROY SCHOOL    N/A         40  31  70  CALM    29.70F
#UKIAH          N/A         45  23  41  S1      29.80R
#WESTON 4E      N/A         44  23  43  SE10    29.76R
$$

ORZ505-200610-
JOHN DAY BASIN

CITY            SKY/WX      TMP DP  RH  WIND    PRES   REMARKS
JOHN DAY        CLOUDY      49  22  34  S22G33  29.83F WCI 42
#ANTELOPE 9ESE  N/A         37  28  70  CALM    N/A
#DAYVILLE SCHOOLN/A         52  20  28  E2      29.79R
#MITCHELL 8NW   N/A         48  23  37  W12G25  29.83F WCI 43
#MONUMENT HS    N/A         36  28  72  E2      29.75F
#MT. VERNON 5SE N/A         44  23  43  E8      29.81R
#WINLOCK        N/A         40  23  50  N2      29.76S
$$

ORZ506-200610-
OCHOCO AND JOHN DAY HIGHLANDS

CITY            SKY/WX      TMP DP  RH  WIND    PRES   REMARKS
#HORSE RIDGE DO N/A         46  24  42  SW8     N/A
#IZEE 6NW       N/A         41  26  55  S2      N/A
#PAULINA ODOT   N/A         47  21  35  SW2     N/A
#PINE MTN OBS   N/A         33  28  82  SE15G30 N/A    WCI 23
#PRAIRIE CITY   N/A         39  24  54  CALM    30.01F
#SENECA         N/A         39  N/A N/A CALM    N/A
#SENECA 9NW     N/A         36  25  64  CALM    29.99R
$$

ORZ049-200610-
GRANDE RONDE VALLEY

CITY            SKY/WX      TMP DP  RH  WIND    PRES   REMARKS
LA GRANDE       CLOUDY      43  23  45  S17     29.87R WCI 35
#COVE SCHOOL    N/A         47  24  40  SW2     29.86R
#COVE 6NW       N/A         44  25  47  SE5     29.89F
#ELGIN 3N       N/A         43  20  39  S21     29.80S WCI 34
#ELGIN 1E       N/A         43  25  49  SW9     N/A
#IMBLER SCHOOL  N/A         41  25  53  CALM    29.82S
#ISLAND CITY 4N N/A         43  42  96  CALM    29.75F
#LADD CYN DOT   N/A         42  25  51  S24G40  N/A    WCI 32
#UNION 1S       N/A         44  25  47  E9      29.91R
$$

ORZ050-200610-
WALLOWA COUNTY

CITY            SKY/WX      TMP DP  RH  WIND    PRES   REMARKS
JOSEPH AIRPORT  CLOUDY      37  21  52  NW8     29.77F
#ENTERPRISE HS  N/A         32  26  78  CALM    29.78F
#IMNAHA SCHOOL  N/A         51  24  34  N14G25  29.81F
#IMNAHA 10S     N/A         48  22  35  SW15G33 29.81F WCI 42
#JOSEPH         N/A         41  16  36  N8      30.22S
#JOSEPH 3N      N/A         36  21  54  E2      29.82F
#JOSEPH 3W      N/A         39  19  44  NE1     30.21F
#LOSTINE        N/A         30  25  81  CALM    29.72S
#LOSTINE 3SE    N/A         31  25  78  CALM    29.82F
#MT HOWARD 8000 N/A         34  10  36  SW20G54 29.73S WCI 23
#PROMISE 1S     N/A         37  24  59  W3      29.93F
#WALLOWA SCHOOL N/A         30  27  88  CALM    29.80S



$$



USA.gov is the U.S. government's official web portal to all federal, state and local government web resources and services.